Location: Carbonear
(47.7333°N, 53.2500°W)
Time: 05:53:49
(UTC+00:00)

Oscar 11 - Pass Details

Date: 09 December 2022
Orbit: 611 x 621 km, 97.6° (Epoch: 28 January)

Event Time Altitude Azimuth Distance (km) Brightness Sun altitude
Rises 20:31:40 0° 211° (SSW) 2,876 11.5 -8.2°
Reaches altitude 10° 20:34:40 10° 234° (SW) 1,975 11.2 -8.7°
Maximum altitude 20:37:13 15° 271° (W) 1,650 10.3 -9.1°
Drops below altitude 10° 20:39:47 10° 307° (NW) 1,981 10.1 -9.5°
Sets 20:42:49 0° 331° (NNW) 2,891 10.6 -10.0°
